South Lake Tahoe, CA

1:29 PM PDT on August 23, 2017 (GMT -0700)
Lake Tahoe

Weather History for KTVL - May, 2013

Change the Weather History Date:

Saturday, May 18, 2013

  Actual Average Record
Temperature  
Mean Temperature 46 °F 48 °F  
Max Temperature 62 °F 64 °F 82 °F (2008)
Min Temperature 29 °F 33 °F 7 °F (1974)
Degree Days  
Heating Degree Days 19 17  
Month to date heating degree days 266 336  
Since 1 July heating degree days 6650 7226  
Cooling Degree Days 0 0  
Month to date cooling degree days 0 0  
Year to date cooling degree days 0 0  
Moisture  
Dew Point 26 °F    
Average Humidity 49    
Maximum Humidity 78    
Minimum Humidity 19    
Precipitation  
Precipitation 0.00 in - 0.77 in (2005)
Month to date precipitation 1.64  
Year to date precipitation 4.58  
Sea Level Pressure  
Sea Level Pressure 30.10 in    
Wind  
Wind Speed 3 mph (SSW)    
Max Wind Speed 14 mph    
Max Gust Speed 23 mph    
Visibility 10 miles    
Events      
T = Trace of Precipitation, MM = Missing Value Source: NWS Daily Summary

Daily Weather History Graph

Daily Weather History Graph

Search for Another Location

Airport or City:

Trip Planner

Search our weather history database for the weather conditions in past years. The results will help you decide how hot, cold, wet, or windy it might be!

Date:

Astronomy

May. 18, 2013 Rise Set
Actual Time 5:44 AM PDT 8:08 PM PDT
Civil Twilight 5:14 AM PDT 8:39 PM PDT
Nautical Twilight 4:37 AM PDT 9:16 PM PDT
Astronomical Twilight 3:55 AM PDT 9:58 PM PDT
Moon 1:20 PM PDT (5/18) 1:35 AM PDT (5/18)
Length of Visible Light 15h 24m
Length of Day
14h 24m
First Quarter, 56% of the Moon is Illuminated
May 18
First Quarter
May 24
Full
May 31
Last Quarter
Jun 8
New
Jun 16
First Quarter

Hourly Weather History & Observations

Time (PDT) Temp. Windchill Dew Point Humidity Pressure Visibility Wind Dir Wind Speed Gust Speed Precip Events Conditions
12:53 AM 34.0 °F - 26.1 °F 73% 30.06 in 10.0 mi Calm Calm - N/A   Clear
1:53 AM 33.1 °F 28.7 °F 26.1 °F 75% 30.06 in 10.0 mi South 4.6 mph - N/A   Clear
2:53 AM 30.9 °F - 25.0 °F 79% 30.07 in 10.0 mi Calm Calm - N/A   Clear
3:53 AM 30.9 °F 27.5 °F 24.1 °F 76% 30.07 in 10.0 mi SSW 3.5 mph - N/A   Clear
4:53 AM 28.9 °F 25.2 °F 23.0 °F 78% 30.08 in 10.0 mi South 3.5 mph - N/A   Clear
5:53 AM 28.9 °F - 23.0 °F 78% 30.10 in 10.0 mi Calm Calm - N/A   Clear
6:53 AM 32.0 °F 27.5 °F 24.1 °F 73% 30.12 in 10.0 mi South 4.6 mph - N/A   Clear
7:53 AM 39.0 °F - 24.1 °F 55% 30.11 in 10.0 mi Calm Calm - N/A   Clear
8:53 AM 48.9 °F - 21.9 °F 35% 30.09 in 10.0 mi Calm Calm - N/A   Clear
9:53 AM 55.0 °F - 21.0 °F 27% 30.08 in 10.0 mi Variable 3.5 mph - N/A   Clear
10:53 AM 57.0 °F - 21.0 °F 25% 30.08 in 10.0 mi NNE 6.9 mph - N/A   Clear
12:53 PM 61.0 °F - 23.0 °F 23% 30.09 in 10.0 mi Variable 6.9 mph - N/A   Clear
1:53 PM 61.0 °F - 24.1 °F 24% 30.09 in 10.0 mi Variable 5.8 mph - N/A   Clear
2:53 PM 62.1 °F - 28.9 °F 29% 30.09 in 10.0 mi SW 9.2 mph 19.6 mph N/A   Clear
3:53 PM 62.1 °F - 30.0 °F 30% 30.09 in 10.0 mi SSW 10.4 mph 17.3 mph N/A   Partly Cloudy
4:53 PM 60.1 °F - 28.9 °F 31% 30.10 in 10.0 mi SSW 10.4 mph 19.6 mph N/A   Clear
5:53 PM 57.9 °F - 30.0 °F 35% 30.11 in 10.0 mi SSW 9.2 mph - N/A   Clear
6:53 PM 55.0 °F - 30.0 °F 38% 30.12 in 10.0 mi SSW 6.9 mph - N/A   Clear
7:53 PM 53.1 °F - 30.9 °F 43% 30.12 in 10.0 mi Variable 5.8 mph - N/A   Partly Cloudy
8:53 PM 48.0 °F - 30.0 °F 50% 30.11 in 10.0 mi SW 3.5 mph - N/A   Partly Cloudy
9:53 PM 43.0 °F - 30.0 °F 60% 30.12 in 10.0 mi Calm Calm - N/A   Clear
10:53 PM 41.0 °F - 32.0 °F 70% 30.13 in 10.0 mi Calm Calm - N/A   Clear
11:53 PM 39.9 °F - 30.9 °F 70% 30.13 in 10.0 mi Calm Calm - N/A   Clear